This is the latest recevied weather packets stored in our database for station/object DH1FR-13. If no packets are shown the sender has not sent any weather packets the latest 1 day(s).
| Time | Temp. | Humidity | Pressure | Rain* | Wind** | Luminosity | Snow |
|---|---|---|---|---|---|---|---|
| 1778062201 | 15° C | 85% | 1008.3 hPa | 3.56 mm | 0 m/s | - | - |
| 1778061602 | 15° C | 84% | 1008.4 hPa | 3.56 mm | 0 m/s | - | - |
| 1778060401 | 15° C | 86% | 1008.4 hPa | 3.56 mm | 0 m/s | - | - |
| 1778059201 | 13.89° C | 94% | 1008.4 hPa | 3.56 mm | 0 m/s | - | - |
| 1778058001 | 12.78° C | 99% | 1008.3 hPa | 3.56 mm | 0 m/s | - | - |
| 1778056201 | 12.22° C | 99% | 1008.2 hPa | 3.56 mm | 0 m/s | - | - |
| 1778054401 | 12.22° C | 99% | 1007.8 hPa | 3.56 mm | 0 m/s | - | - |
| 1778051401 | 11.67° C | 99% | 1008 hPa | 3.56 mm | 0 m/s | - | - |
| 1778049001 | 11.67° C | 99% | 1007.8 hPa | 3.56 mm | 0 m/s | - | - |
| 1778045405 | 11.67° C | 99% | 1008 hPa | 3.56 mm | 0 m/s | - | - |
| 1778044801 | 11.11° C | 99% | 1007.9 hPa | 3.56 mm | 0 m/s | - | - |
| 1778044201 | 11.11° C | 99% | 1007.9 hPa | 2.54 mm | 0 m/s | - | - |
| 1778043601 | 11.11° C | 99% | 1008.1 hPa | 2.29 mm | 0 m/s | - | - |
| 1778042401 | 11.67° C | 99% | 1007.8 hPa | 2.29 mm | 0 m/s | - | - |
| 1778041801 | 11.11° C | 99% | 1007.8 hPa | 2.29 mm | 0 m/s | - | - |
| 1778040601 | 11.67° C | 99% | 1007.8 hPa | 2.29 mm | 0 m/s | - | - |
| 1778040001 | 11.67° C | 99% | 1007.7 hPa | 2.29 mm | 0 m/s | - | - |
| 1778039401 | 11.67° C | 99% | 1007.8 hPa | 2.29 mm | 0 m/s | - | - |
| 1778038801 | 11.67° C | 99% | 1007.7 hPa | 2.29 mm | 0 m/s | - | - |
| 1778038201 | 11.67° C | 99% | 1007.6 hPa | 2.29 mm | 0 m/s | - | - |
| 1778037601 | 11.67° C | 99% | 1007.6 hPa | 2.29 mm | 0 m/s | - | - |
| 1778037005 | 11.67° C | 99% | 1007.9 hPa | 2.29 mm | 0 m/s | - | - |
| 1778036401 | 11.67° C | 99% | 1007.9 hPa | 2.03 mm | 0 m/s | - | - |
| 1778035801 | 11.67° C | 99% | 1008 hPa | 1.78 mm | 0 m/s | - | - |
| 1778035200 | 11.67° C | 99% | 1008 hPa | 1.27 mm | 0 m/s | - | - |
* Rain latest hour (hover to see other rain measurements)
** Current wind speed in m/s (hover to see current wind gust speed)